Date String (YYYY-MM-DD hh:mm:ss) UTC,Instrument flags,Ambient pressure (hPa),Sample flow (lpm),Bypass flow (lpm),Sample temperature (°C),Ambient temperature (°C),ASC tube jacket temperature (°C),LED temperature (°C),Box temperature (°C),Sample RH (%),Span deviation,Mass concentration (μg/m³),Mass concentration (μg/m³),Mass concentration (μg/m³)
DateTimeUTC,F1_M11,P_M11,Q1_M11,Q2_M11,T1_M11,T2_M11,T3_M11,T4_M11,T5_M11,U1_M11,ZSPAN_M11,X0_M11,X2_M11,X1_M11
2022-04-18 22:00:00,,0827.7,5.00,0.00,27.6,27.0,00.0,36.4,29.5,10.2,0001.4,0023.56,0008.02,0005.76
2022-04-18 22:01:00,,0827.7,5.00,0.00,27.6,27.1,00.0,36.4,29.5,10.2,0003.5,0023.72,0008.33,0005.91
2022-04-18 22:02:00,,0827.7,5.00,0.00,27.7,27.1,00.0,36.4,29.6,10.3,0003.4,0023.90,0008.46,0006.04
2022-04-18 22:03:00,,0827.7,5.01,0.00,27.7,27.1,00.0,36.4,29.6,10.2,0003.9,0024.38,0008.66,0006.19
2022-04-18 22:04:00,,0827.7,5.00,0.00,27.7,27.2,00.0,36.5,29.6,10.2,0004.1,0024.95,0008.87,0006.31
2022-04-18 22:05:00,,0827.6,5.00,0.00,27.7,27.2,00.0,36.5,29.6,10.2,0004.7,0025.57,0009.00,0006.41
2022-04-18 22:06:00,,0827.6,4.99,0.00,27.8,27.2,00.0,36.5,29.6,10.3,0004.6,0026.14,0008.98,0006.44
2022-04-18 22:07:00,,0827.6,4.99,0.00,27.8,27.2,00.0,36.5,29.7,10.2,0004.1,0026.12,0008.98,0006.42
2022-04-18 22:08:00,,0827.5,5.00,0.00,27.8,27.2,00.0,36.5,29.7,10.2,0004.9,0026.50,0009.02,0006.43
2022-04-18 22:09:00,,0827.5,5.01,0.00,27.8,27.3,00.0,36.6,29.7,10.1,0005.4,0028.54,0008.99,0006.44
2022-04-18 22:10:00,,0827.5,5.00,0.00,27.8,27.3,00.0,36.6,29.8,10.1,0005.6,0028.77,0009.02,0006.45
2022-04-18 22:11:00,,0827.5,5.00,0.00,27.9,27.4,00.0,36.6,29.8,10.0,0005.7,0028.77,0009.03,0006.45
2022-04-18 22:12:00,,0827.4,5.00,0.00,27.9,27.4,00.0,36.6,29.8,10.1,0004.8,0029.18,0008.96,0006.43
2022-04-18 22:13:00,,0827.5,5.00,0.00,27.9,27.4,00.0,36.6,29.8,10.0,0005.0,0030.11,0008.97,0006.37
2022-04-18 22:14:00,,0827.5,5.00,0.00,28.0,27.4,00.0,36.7,29.9,10.0,0004.8,0030.89,0008.97,0006.32
2022-04-18 22:15:00,,0827.4,5.01,0.00,28.0,27.5,00.0,36.7,29.9,09.9,0005.1,0030.09,0008.92,0006.31
2022-04-18 22:16:00,,0827.4,5.00,0.00,28.0,27.5,00.0,36.7,29.9,09.9,0005.4,0030.14,0008.97,0006.32
2022-04-18 22:17:00,,0827.4,5.00,0.00,28.0,27.5,00.0,36.7,29.9,09.9,0005.4,0029.93,0009.03,0006.32
2022-04-18 22:18:00,,0827.4,4.99,0.00,28.1,27.5,00.0,36.7,30.0,09.9,0005.5,0030.80,0009.04,0006.32
2022-04-18 22:19:00,,0827.4,4.99,0.00,28.1,27.5,00.0,36.8,30.0,10.0,0005.1,0031.16,0009.05,0006.27
2022-04-18 22:20:00,,0827.4,5.01,0.00,28.1,27.6,00.0,36.8,30.0,09.9,0004.9,0029.15,0009.10,0006.25
2022-04-18 22:21:00,,0827.4,5.00,0.00,28.1,27.6,00.0,36.8,30.0,09.8,0005.2,0029.18,0009.11,0006.24
2022-04-18 22:22:00,,0827.3,5.00,0.00,28.1,27.6,00.0,36.8,30.0,09.9,0005.5,0029.21,0009.16,0006.25
2022-04-18 22:23:00,,0827.4,4.98,0.00,28.2,27.6,00.0,36.8,30.1,10.0,0006.1,0028.44,0009.16,0006.26
2022-04-18 22:24:00,,0827.3,5.00,0.00,28.2,27.6,00.0,36.9,30.1,09.9,0006.3,0027.02,0009.21,0006.36
2022-04-18 22:25:00,,0827.4,4.99,0.00,28.2,27.7,00.0,36.9,30.1,10.0,0005.8,0025.20,0009.23,0006.43
2022-04-18 22:26:00,,0827.5,5.01,0.00,28.3,27.7,00.0,36.9,30.1,10.0,0005.7,0026.00,0009.32,0006.50
2022-04-18 22:27:00,,0827.2,5.00,0.00,28.3,27.7,00.0,36.9,30.1,09.9,0004.1,0026.69,0009.37,0006.59
2022-04-18 22:28:00,,0827.2,4.99,0.00,28.3,27.7,00.0,37.0,30.2,09.9,0001.4,0026.66,0009.48,0006.67
2022-04-18 22:29:00,,0827.1,4.99,0.00,28.3,27.7,00.0,37.0,30.2,09.8,0005.2,0026.02,0009.51,0006.71
2022-04-18 22:30:00,,0827.1,5.00,0.00,28.3,27.8,00.0,37.0,30.2,09.9,0005.8,0024.67,0009.46,0006.75
2022-04-18 22:31:00,,0827.1,5.00,0.00,28.3,27.8,00.0,37.0,30.2,09.9,0005.7,0026.16,0009.50,0006.79
2022-04-18 22:32:00,,0827.1,5.00,0.00,28.4,27.8,00.0,37.0,30.2,09.9,0005.2,0026.27,0009.50,0006.80
2022-04-18 22:33:00,,0827.1,5.00,0.00,28.4,27.8,00.0,37.0,30.3,09.9,0005.3,0027.80,0009.45,0006.81
2022-04-18 22:34:00,,0827.1,5.00,0.00,28.4,27.8,00.0,37.1,30.3,09.9,0005.4,0028.66,0009.42,0006.82
2022-04-18 22:35:00,,0827.0,5.00,0.00,28.4,27.8,00.0,37.1,30.3,09.7,0003.2,0030.00,0009.47,0006.78
2022-04-18 22:36:00,,0827.0,5.01,0.00,28.4,27.9,00.0,37.1,30.3,09.8,0000.0,0031.36,0009.49,0006.74
2022-04-18 22:37:00,,0826.9,5.00,0.00,28.5,27.9,00.0,37.1,30.3,09.9,0000.0,0031.65,0009.43,0006.71
2022-04-18 22:38:00,,0827.0,4.99,0.00,28.5,27.9,00.0,37.2,30.3,09.8,0003.1,0031.19,0009.41,0006.66
2022-04-18 22:39:00,,0827.0,5.01,0.00,28.5,27.9,00.0,37.2,30.3,09.7,0005.8,0030.87,0009.39,0006.60
2022-04-18 22:40:00,,0826.9,5.01,0.00,28.5,27.9,00.0,37.2,30.4,09.7,0005.7,0032.02,0009.39,0006.58
2022-04-18 22:41:00,,0826.9,5.00,0.00,28.5,27.9,00.0,37.2,30.4,09.7,0005.3,0031.61,0009.40,0006.58
2022-04-18 22:42:00,,0827.0,5.01,0.00,28.5,28.0,00.0,37.2,30.4,09.8,0005.1,0031.12,0009.40,0006.57
2022-04-18 22:43:00,,0826.9,4.99,0.00,28.6,28.0,00.0,37.2,30.4,09.8,0005.5,0032.49,0009.42,0006.57
2022-04-18 22:44:00,,0826.9,5.00,0.00,28.6,28.0,00.0,37.3,30.4,09.7,0005.6,0032.18,0009.41,0006.57
2022-04-18 22:45:00,,0826.9,5.00,0.00,28.6,28.0,00.0,37.3,30.4,09.8,0005.6,0031.72,0009.42,0006.56
2022-04-18 22:46:00,,0826.9,5.00,0.00,28.6,28.0,00.0,37.3,30.5,09.7,0005.6,0029.86,0009.27,0006.55
2022-04-18 22:47:00,,0826.8,5.00,0.00,28.6,28.0,00.0,37.3,30.5,09.6,0005.6,0029.50,0009.19,0006.57
2022-04-18 22:48:00,,0826.8,5.00,0.00,28.6,28.1,00.0,37.3,30.5,09.6,0005.3,0028.98,0009.13,0006.54
2022-04-18 22:49:00,,0826.9,5.00,0.00,28.7,28.1,00.0,37.4,30.5,09.6,0004.9,0028.88,0009.11,0006.54
2022-04-18 22:50:00,,0826.9,5.00,0.00,28.7,28.1,00.0,37.4,30.5,09.6,0005.1,0029.15,0009.05,0006.52
2022-04-18 22:51:00,,0826.8,5.00,0.00,28.7,28.1,00.0,37.4,30.5,09.6,0004.2,0027.88,0009.09,0006.49
2022-04-18 22:52:00,,0826.9,4.99,0.00,28.7,28.1,00.0,37.4,30.6,09.6,0004.5,0028.29,0009.09,0006.48
2022-04-18 22:53:00,,0827.0,5.00,0.00,28.7,28.1,00.0,37.4,30.6,09.7,0003.8,0027.54,0009.02,0006.45
2022-04-18 22:54:00,,0827.1,5.00,0.00,28.7,28.1,00.0,37.5,30.6,09.6,0000.4,0025.71,0008.98,0006.46
2022-04-18 22:55:00,,0826.8,5.00,0.00,28.8,28.2,00.0,37.5,30.6,09.6,0001.5,0025.23,0009.05,0006.48
2022-04-18 22:56:00,,0826.8,5.00,0.00,28.8,28.2,00.0,37.5,30.6,09.6,0000.4,0024.89,0009.09,0006.49
2022-04-18 22:57:00,,0826.8,5.00,0.00,28.8,28.2,00.0,37.5,30.6,09.7,0002.1,0026.35,0009.25,0006.49
2022-04-18 22:58:00,,0826.8,5.01,0.00,28.8,28.2,00.0,37.5,30.7,09.7,0001.2,0025.52,0009.24,0006.48
2022-04-18 22:59:00,,0826.8,5.00,0.00,28.8,28.2,00.0,37.5,30.7,09.6,0000.8,0024.85,0009.26,0006.49
